Oxford, CT

5:02 PM EDT on April 25, 2018 (GMT -0400)
Waterbury-Oxford

Weather History for KOXC - March, 2011

Change the Weather History Date:

Saturday, March 12, 2011

  Actual Average Record
Temperature  
Mean Temperature 42 °F -  
Max Temperature 50 °F 39 °F 69 °F (2012)
Min Temperature 33 °F 24 °F 8 °F (2017)
Degree Days  
Heating Degree Days 24    
Moisture  
Dew Point 27 °F    
Average Humidity 61    
Maximum Humidity 75    
Minimum Humidity 37    
Precipitation  
Precipitation 0.00 in - - ()
Sea Level Pressure  
Sea Level Pressure 29.82 in    
Wind  
Wind Speed 6 mph (WSW)    
Max Wind Speed 12 mph    
Max Gust Speed 25 mph    
Visibility 10 miles    
Events Snow    
Averages and records for this station are not official NWS values.
T = Trace of Precipitation, MM = Missing Value Source: NWS Daily Summary

Daily Weather History Graph

Daily Weather History Graph

Search for Another Location

Airport or City:

Astronomy

Mar. 12, 2011 Rise Set
Actual Time 6:09 AM EST 5:55 PM EST
Civil Twilight 5:42 AM EST 6:23 PM EST
Nautical Twilight 5:10 AM EST 6:55 PM EST
Astronomical Twilight 4:37 AM EST 7:27 PM EST
Moon 10:06 AM EST (3/12) 12:49 AM EST (3/12)
Length of Visible Light 12h 40m
Length of Day
11h 45m
Waxing Crescent, 47% of the Moon is Illuminated
Mar 12
Waxing Crescent
Mar 12
First Quarter
Mar 19
Full
Mar 26
Last Quarter
Apr 3
New

Hourly Weather History & Observations

Time (EST) Temp. Windchill Dew Point Humidity Pressure Visibility Wind Dir Wind Speed Gust Speed Precip Events Conditions
12:15 AM 37.4 °F 34.9 °F 26.6 °F 65% 29.80 in 10.0 mi West 3.5 mph - N/A   Overcast
12:35 AM 37.4 °F 34.9 °F 26.6 °F 65% 29.80 in 10.0 mi WSW 3.5 mph - N/A   Overcast
12:55 AM 37.4 °F 32.8 °F 26.6 °F 65% 29.79 in 10.0 mi WSW 5.8 mph - N/A   Overcast
1:15 AM 37.4 °F 30.3 °F 24.8 °F 60% 29.80 in 10.0 mi West 10.4 mph 19.6 mph N/A   Mostly Cloudy
1:35 AM 35.6 °F 28.0 °F 24.8 °F 65% 29.80 in 10.0 mi West 10.4 mph - N/A   Partly Cloudy
1:55 AM 35.6 °F 28.6 °F 24.8 °F 65% 29.80 in 10.0 mi West 9.2 mph - N/A   Scattered Clouds
2:15 AM 35.6 °F 27.5 °F 24.8 °F 65% 29.79 in 10.0 mi West 11.5 mph 17.3 mph N/A   Scattered Clouds
2:35 AM 35.6 °F 30.7 °F 24.8 °F 65% 29.79 in 10.0 mi West 5.8 mph - N/A   Mostly Cloudy
2:55 AM 35.6 °F 29.2 °F 24.8 °F 65% 29.79 in 10.0 mi West 8.1 mph - N/A   Overcast
3:15 AM 35.6 °F 30.7 °F 24.8 °F 65% 29.80 in 10.0 mi West 5.8 mph - N/A   Mostly Cloudy
3:35 AM 35.6 °F 30.7 °F 24.8 °F 65% 29.80 in 10.0 mi West 5.8 mph - N/A   Scattered Clouds
3:55 AM 33.8 °F 28.6 °F 24.8 °F 70% 29.81 in 10.0 mi West 5.8 mph - N/A   Scattered Clouds
4:15 AM 33.8 °F 27.7 °F 24.8 °F 70% 29.81 in 10.0 mi West 6.9 mph - N/A   Clear
4:35 AM 33.8 °F 27.7 °F 24.8 °F 70% 29.82 in 10.0 mi West 6.9 mph - N/A   Clear
4:55 AM 33.8 °F 29.6 °F 24.8 °F 70% 29.82 in 10.0 mi West 4.6 mph - N/A   Scattered Clouds
5:15 AM 33.8 °F 28.6 °F 24.8 °F 70% 29.83 in 10.0 mi WSW 5.8 mph - N/A   Mostly Cloudy
5:35 AM 33.8 °F 27.7 °F 24.8 °F 70% 29.83 in 10.0 mi West 6.9 mph - N/A   Overcast
5:45 AM 33.8 °F 27.0 °F 24.8 °F 70% 29.83 in 10.0 mi WSW 8.1 mph - N/A   Mostly Cloudy
6:45 AM 33.8 °F 27.7 °F 26.6 °F 75% 29.84 in 10.0 mi WSW 6.9 mph - N/A   Mostly Cloudy
7:25 AM 33.8 °F 27.0 °F 26.6 °F 75% 29.85 in 8.0 mi WSW 8.1 mph - N/A Snow Light Snow
7:45 AM 33.8 °F 27.0 °F 26.6 °F 75% 29.85 in 10.0 mi West 8.1 mph - N/A   Overcast
9:45 AM 39.2 °F 33.0 °F 28.4 °F 65% 29.83 in 10.0 mi West 9.2 mph 18.4 mph N/A   Mostly Cloudy
10:45 AM 42.8 °F 37.5 °F 28.4 °F 57% 29.84 in 10.0 mi West 9.2 mph 25.3 mph N/A   Mostly Cloudy
11:50 AM 44.6 °F 38.8 °F 30.2 °F 57% 29.83 in 10.0 mi West 11.5 mph 17.3 mph N/A   Mostly Cloudy
12:45 PM 46.4 °F 41.1 °F 30.2 °F 53% 29.81 in 10.0 mi West 11.5 mph 19.6 mph N/A   Scattered Clouds
1:45 PM 46.4 °F 42.4 °F 30.2 °F 53% 29.78 in 10.0 mi West 8.1 mph 16.1 mph N/A   Partly Cloudy
2:45 PM 48.2 °F - 28.4 °F 46% 29.78 in 10.0 mi West 5.8 mph 17.3 mph N/A   Overcast
3:45 PM 50.0 °F - 26.6 °F 40% 29.77 in 10.0 mi SW 6.9 mph 16.1 mph N/A   Scattered Clouds
4:45 PM 50.0 °F - 24.8 °F 37% 29.78 in 10.0 mi WSW 11.5 mph 17.3 mph N/A   Mostly Cloudy
5:45 PM 48.2 °F - 24.8 °F 40% 29.79 in 10.0 mi WSW 8.1 mph 16.1 mph N/A   Clear
6:45 PM 44.6 °F 40.7 °F 24.8 °F 46% 29.82 in 10.0 mi SSW 6.9 mph - N/A   Clear
9:15 PM 42.8 °F 41.1 °F 30.2 °F 61% 29.86 in 10.0 mi SSW 3.5 mph - N/A   Mostly Cloudy
9:35 PM 44.6 °F 43.1 °F 30.2 °F 57% 29.85 in 10.0 mi South 3.5 mph - N/A   Overcast
9:55 PM 42.8 °F - 30.2 °F 61% 29.86 in 10.0 mi Calm Calm - N/A   Overcast
10:15 PM 44.6 °F - 30.2 °F 57% 29.86 in 10.0 mi Calm Calm - N/A   Overcast
10:35 PM 44.6 °F 42.2 °F 30.2 °F 57% 29.85 in 10.0 mi SSE 4.6 mph - N/A   Overcast
10:55 PM 42.8 °F 40.1 °F 30.2 °F 61% 29.85 in 10.0 mi South 4.6 mph - N/A   Overcast
11:15 PM 42.8 °F 41.1 °F 30.2 °F 61% 29.84 in 10.0 mi SSE 3.5 mph - N/A   Overcast
11:35 PM 42.8 °F - 30.2 °F 61% 29.84 in 10.0 mi Calm Calm - N/A   Overcast
11:55 PM 42.8 °F 41.1 °F 30.2 °F 61% 29.84 in 10.0 mi SE 3.5 mph - N/A   Overcast